OPS 0856 DEB, 24647

Orbit data source: Space-Track

OPS 0856 DEB, 24647 is space debris in LEO originally from a launch on Fri, 19 Aug 1966 UTC launched from the Air Force Western Test Range (AFWTR). Debris objects in space refer to the collection of defunct objects orbiting the Earth. Examples of debris include non-operational satellites, rocket bodies, and fragments generated from explosions, collisions, or faulty payload assembly.

Loading next visibility...
Identifier
24647, 1966-077P
Orbit
LEO
Country
Flag of USUS
Related business
Manufacturer
Unknown
Mission
Spacecraft
Bus & Motor
Unknown
Mass
Unknown
Launch date (UTC)
1966-08-19 (59 years ago)
Launch vehicle
Unknown
Launch site
Air Force Western Test Range (AFWTR)
Object type
Payload
Rocket body
Debris
Shape & HBR
Unknown shape, 0.1 m
Radar Cross Section
Small (<0.1 m²)

Expand to show TLE details & history
Last TLE update: 16 hours ago

TLE from 16 hours ago
0 OPS 0856 DEB
1 24647U 66077P   25286.39621253  .00000705  00000-0  18962-1 0  9992
2 24647  88.2283  78.9212 1861178 349.0795  29.9653  9.37229774545473
Epoch: 2025-10-13T09:30Z
TLE epoch observation values (Epoch: 2025-10-13T09:30:32.762Z)
Latitude
32.2705°
Longitude
-84.80121°
Altitude
1,702.23 km
Speed
7.536 km/s
True Right ascension
05h 20m 08s
True Declination
32° 08' 01"
Sunlit
Object was in daylight at epoch
Visualization orbit readout
Latitude
Unknown
Longitude
Unknown
Altitude
Unknown
Speed
Unknown
Apparent Right ascension
Unknown
Apparent Declination
Unknown
Sunlit
N/A
Visualization observer readout
Local Sidereal Time
20:11:13
Azimuth
Unknown
Elevation
Unknown
Doppler factor
Unknown
Orbital elements
Apogee altitude
4,890.063 km
Perigee altitude
1,353.799 km
Semi-major axis
9,500.068 km
Eccentricity
0.18612
Inclination
88.2283°
RAAN
78.9212°
Arg. of periapsis
349.0795°
True anomaly
43.15235°
Mean anomaly
29.9653°
Eccentric anomaly
36.27457°
Mean motion
2.34398 °/min
Orbital period
153.59 mins
BSTAR
0.018962
Loading maneuver chart data...
Computing Atmospheric mass density...
Loading historical data...
Loading historical data...
Loading historical data...
Loading historical data...
Loading historical data...
Loading historical data...
Loading historical data...

Documentation

Showing up to 5 results
|